Погода в Нейи-сюре-Сене

Франция     48°53′19″N   2°16′26″E
темп.,
°C
ветер,
м/с
пор.,
м/с
влажн.,
%
обл.,
%
осадки,
мм/ч
давл.,
гПа
погр.,
м
16 мая, пн
пн1623:00+17ююв3688100 5.1 1013139
02:00+17ю4129012 6.0 1013522
05:00+16юз3994100 0.0 1013400
08:00+16зюз41188100 0.0 1016506
11:00+20з4759100 0.0 1018901
14:00+23з47448 0.0 10191949
17:00+24з4542100 0.0 10182216
20:00+21з1358100 0.0 1019279
17 мая, вт
вт1723:00+18св117197 0.0 102013
02:00+17юв2372100 0.0 102099
05:00+17ю267377 0.0 1020196
08:00+17ююз127320 0.0 1020196
11:00+23ю115626 0.0 1020696
14:00+26ююв22392 0.0 10191907
17:00+27ююв33369 0.0 10172271
20:00+26ююв244692 0.0 1017817
18 мая, ср
ср1823:00+21зсз016688 0.0 101814
02:00+19ю12804 0.4 101944
05:00+18зсз11900 0.3 102015
08:00+18ссз23860 0.3 1021201
11:00+23с216268 0.0 1022681
14:00+26с224698 0.0 10201360
17:00+28в444289 0.0 10182005
20:00+25вюв4659100 0.0 1017898
19 мая, чт
чт1923:00+22вюв3108291 0.9 1017305
02:00+20юв278894 1.9 1016226
05:00+19ю2689100 0.3 1016204
08:00+19ю2491100 1.8 1017202
11:00+24зюз366882 0.0 1017795
14:00+23зсз566541 0.1 10201003
17:00+23сз446275 0.2 10201056
20:00+21ссз446459 0.2 1020941
20 мая, пт
пт2023:00+17ссв257919 0.0 1022242
02:00+15св23765 0.0 1022162
05:00+14св237392 0.0 1021156
08:00+16вюв3666100 0.0 1021237
11:00+20вюв2476100 0.6 1019587
14:00+20ю1488100 5.3 1017442
17:00+21зсз5886100 1.0 1017727
20:00+19сз478110 1.2 1019767